Погода в Ванкувере

США     45°38′25″N   122°40′11″W
темп.,
°C
ветер,
м/с
пор.,
м/с
влажн.,
%
обл.,
%
осадки,
мм/ч
давл.,
гПа
погр.,
м
19 апреля, пн
пн1923:00+9сз226973 0.0 102220
02:00+7ссз11735 0.0 102311
05:00+6св11760 0.0 102410
08:00+10сз006550 0.0 102495
11:00+18в134883 0.0 1024821
14:00+20св2336100 0.0 10231604
17:00+18св2447100 0.0 1021424
20:00+13с2257100 0.0 102117
20 апреля, вт
вт2023:00+11ссз236699 0.0 102269
02:00+8с2379100 0.0 102260
05:00+7ссз118599 0.0 102217
08:00+9с12691 0.0 1023147
11:00+17с12425 0.0 1022673
14:00+21ссз23351 0.0 10191565
17:00+22с34405 0.0 10171999
20:00+14ссз387229 0.0 1017173
21 апреля, ср
ср2123:00+10сз38845 0.0 1018168
02:00+8ссз23945 0.0 101966
05:00+7ссз22945 0.0 101938
08:00+10с12797 0.0 1019179
11:00+17с235233 0.0 1018817
14:00+22с24391 0.0 10161855
17:00+22сз34407 0.0 10141885
20:00+14сз49608 0.0 1014364
22 апреля, чт
чт2223:00+8сз2690100 0.0 1015125
02:00+6ссз2397100 0.0 101669
05:00+5юз0097100 0.0 101610
08:00+8ююв1285100 0.0 1017282
11:00+11ююв126698 0.0 1016904
14:00+15св335515 0.0 10151060
17:00+17сз45424 0.0 10131638
20:00+9ссз37715 0.0 1015316
23 апреля, пт
пт2323:00+7сз237541 0.0 1017159
02:00+6ю1185100 0.0 101735
05:00+8юв1277100 0.0 101789
08:00+9ююв227594 0.0 1018387
11:00+13ю2257100 0.0 10171223
14:00+17юв014848 0.0 10151274
17:00+18в2246100 0.0 10121050
20:00+12сз3669100 0.0 1012162